Regional Weather Roundup
Issued by NWS Midland/Odessa, TX

Home | Current Version | Previous Version | Text Only | Print | Product List | Glossary On
Versions: 1 2 3 4 5 6 7 8 9 10 11 12 13 14 15 16 17 18 19 20 21 22 23 24 25 26 27 28 29 30 31 32 33 34 35 36 37 38 39 40 41 42 43 44 45 46 47 48 49 50
000
ASUS44 KMAF 301010
RWRMAF
MIDLAND AREA WEATHER ROUNDUP
NATIONAL WEATHER SERVICE MIDLAND TX
500 AM CDT SAT APR 30 2016

...IN SOUTHWEST TEXAS AND SOUTHEAST NEW MEXICO...

CITY           SKY/WX    TMP DP  RH WIND       PRES   REMARKS
ALPINE         CLEAR     45  14  27 SW7       29.94S
ANDREWS        FAIR      47  36  64 N3        29.82R
ARTESIA        PTCLDY    46  28  49 NW5       29.82R
BIG SPRING     CLEAR     53  49  88 NE12G18   29.79S
CARLSBAD       CLEAR     52  29  41 CALM      29.81R
DRYDEN           N/A     62  19  19 W8        29.77R
FORT STOCKTON  CLEAR     54  18  24 SW10      29.82R
GUAD PASS      CLEAR     54  23  30 W24G36    29.87R
HOBBS          CLEAR     46  41  81 N8        29.84R
MARFA          CLEAR     37  13  37 CALM      29.92R
MIDLAND AIRPK  CLEAR     55  27  33 CALM      29.78F
MIDLAND INTL   CLEAR     57  24  28 S3        29.78S
ODESSA         CLEAR     55  25  31 N7        29.80R
PECOS          CLEAR     53  21  28 W5        29.80R
PRESIDIO       FAIR      56  13  18 N12       29.83S
SEMINOLE       MOCLDY    51  45  77 NE8       29.84R
SNYDER           N/A     50  46  87 NE8       29.80R
WINK           NOT AVBL
$$
...OTHER STATIONS IN TEXAS...

CITY           SKY/WX    TMP DP  RH WIND       PRES   REMARKS
ABILENE        CLEAR     53  48  83 N14       29.77R
AMARILLO       CLEAR     37  35  92 NW8       29.82S WCI  31
AUSTIN         TSTM      63  63 100 N13G37    29.69R VSB 1
BROWNSVILLE    CLOUDY    78  76  93 SE12      29.58S FOG
CORPUS CHRISTI CLOUDY    78  75  90 S12       29.58R
DALLAS FTW     CLOUDY    64  59  83 NW16      29.67R
DEL RIO        PTCLDY    61  57  87 NW5       29.70R
EL PASO        PTCLDY    55  28  35 S7        29.86R
HOUSTON INT    CLOUDY    73  73 100 S7        29.62R FOG
LUBBOCK        CLOUDY    46  42  86 N10       29.83R
SAN ANGELO     CLOUDY    57  49  74 E3        29.77R
SAN ANTONIO    CLOUDY    60  55  83 NW8       29.66F
WACO           MOCLDY    64  60  87 N12       29.68R
WICHITA FALLS  NOT AVBL
$$
...OTHER LOCATIONS IN NEW MEXICO...

CITY           SKY/WX    TMP DP  RH WIND       PRES   REMARKS
ALAMAGORDO     CLEAR     46  25  42 NE8       29.84F
ALBUQUERQUE    PTCLDY    45  37  73 S6        29.87F
CANNON AFB     NOT AVBL
CLOVIS         CLEAR     37  34  87 N7        29.84R WCI  32
HOLLOMAN AFB   CLEAR     46  25  43 NE7       29.83F
ROSWELL        MOCLDY    53  33  46 NW9       29.80R
RUIDOSO          N/A     37  32  81 NW6       29.91S WCI  33
SANTA FE       CLOUDY    37  34  89 W8        29.85F WCI  31
TRUTH OR CONSE CLEAR     48  29  47 NW6       29.86S
TUCUMCARI      MOCLDY    38  36  92 CALM      29.82S
$$




USA.gov is the U.S. government's official web portal to all federal, state and local government web resources and services.